Location: ?????
(31.8092°N, 35.2590°E)
Time: 18:54:23
(UTC+00:00)

N. Korean satellite - Pass Details

Date: 30 September 2021
Orbit: 450 x 495 km, 97.3° (Epoch: 16 October)

Event Time Altitude Azimuth Distance (km) Brightness Sun altitude
Rises 02:47:22 0° 11° (NNE) 2,547 10.4 -10.3°
Reaches altitude 10° 02:49:25 10° 12° (NNE) 1,671 9.5 -9.9°
Maximum altitude 02:53:01 85° 103° (ESE) 495 6.6 -9.1°
Drops below altitude 10° 02:56:38 10° 190° (S) 1,679 9.2 -8.4°
Sets 02:58:43 0° 191° (S) 2,560 10.1 -7.9°
